Home   Weather   San Diego   Past weeks
Flag for USA

Past Weather in San Diego, California, USA — Yesterday and Last 2 Weeks

Now
66 °F

Passing clouds.


Feels Like: 66 °F
Forecast: 73 / 61 °F
Wind: 9 mph from South

Location: San Diego - North Island

Current Time: Oct 17, 2019 at 11:57:07 pm

Latest Report: Oct 17, 2019 at 10:52 pm


Visibility: 10 mi

Pressure: 29.83 "Hg

Humidity: 75%

Dew Point: 58 °F

Location of San DiegoLocation

Past Weather in San Diego — Graph

°F

San Diego Temperature Yesterday

Maximum temperature yesterday: 76 °F (at 2:52 pm)
Minimum temperature yesterday: 60 °F (at 6:52 am)
Average temperature yesterday: 67 °F

High & Low Weather Summary for the Past Weeks

 TemperatureHumidityPressure
High81 °F (Oct 11, 10:52 am)94% (Oct 16, 11:52 pm)30.05 "Hg (Oct 16, 11:52 pm)
Low56 °F (Oct 3, 6:52 am)8% (Oct 11, 10:52 am)29.78 "Hg (Oct 17, 3:52 pm)
Average67 °F72%29.90 "Hg
* Reported Oct 2 9:52 pm — Oct 17 9:52 pm, San Diego. Weather by CustomWeather, © 2019

Note: Actual official high and low records may vary slightly from our data, if they occured in-between our weather recording intervals... More about our weather records

Advertising

San Diego Weather History for the Previous 24 Hours

Scroll right to see more
 ConditionsComfort  
Time TempWeatherWind HumidityBarometerVisibility
9:52 pm
Thu, Oct 17
65 °FPassing clouds.9 mph76%29.81 "Hg10 mi
8:52 pm66 °FMostly cloudy.7 mph73%29.81 "Hg10 mi
8:24 pm65 °FPassing clouds.7 mph76%29.82 "Hg10 mi
7:52 pm65 °FPassing clouds.8 mph76%29.80 "Hg10 mi
6:52 pm66 °FPassing clouds.7 mph73%29.80 "Hg10 mi
5:52 pm67 °FPartly sunny.10 mph73%29.79 "Hg10 mi
4:52 pm69 °FScattered clouds.13 mph73%29.78 "Hg10 mi
3:52 pm69 °FPartly sunny.9 mph70%29.78 "Hg10 mi
2:52 pm70 °FScattered clouds.9 mph68%29.80 "Hg10 mi
1:52 pm70 °FScattered clouds.9 mph68%29.81 "Hg10 mi
12:52 pm70 °FPartly sunny.12 mph68%29.83 "Hg10 mi
12:21 pm70 °FPartly sunny.9 mph68%29.84 "Hg10 mi
11:52 am70 °FScattered clouds.12 mph71%29.84 "Hg10 mi
10:52 am69 °FPassing clouds.9 mph73%29.84 "Hg10 mi
9:52 am69 °FPassing clouds.10 mph70%29.84 "Hg10 mi
8:52 am68 °FPartly sunny.7 mph73%29.84 "Hg10 mi
6:52 am65 °FPassing clouds.3 mph81%29.82 "Hg10 mi
5:52 am65 °FPassing clouds.No wind85%29.80 "Hg10 mi
4:52 am65 °FPassing clouds.No wind85%29.80 "Hg10 mi
3:52 am65 °FOvercast.No wind85%29.79 "Hg10 mi
2:52 am66 °FPassing clouds.3 mph84%29.80 "Hg8 mi
1:52 am66 °FPassing clouds.No wind90%29.82 "Hg7 mi
12:52 am65 °FFog.No wind94%29.81 "Hg4 mi
12:24 am65 °FFog.No wind94%29.82 "Hg1 mi
11:52 pm
Wed, Oct 16
65 °FFog.3 mph94%29.83 "Hg0 mi
Weather by CustomWeather, © 2019

See weather overview